Regional Weather Roundup
Issued by NWS

Home | Current Version | Previous Version | Graphics & Text | Print | Product List | Glossary On
Versions: 1 2 3 4 5 6 7 8 9 10 11 12 13 14 15 16 17 18 19 20 21 22 23 24 25 26 27 28 29 30 31 32 33 34 35 36 37 38 39 40 41 42 43 44 45 46 47 48 49 50
000
ASUS43 KMKX 011800
RWRWI

WISCONSIN REGIONAL WEATHER ROUNDUP
NATIONAL WEATHER SERVICE MILWAUKEE/SULLIVAN WI
100 PM CDT TUE SEP 01 2015

NOTE: "FAIR" INDICATES FEW OR NO CLOUDS BELOW 12,000 FEET WITH NO
SIGNIFICANT WEATHER AND/OR OBSTRUCTIONS TO VISIBILITY.

WIZ001-002-006>008-014>016-023>028-011900-
NORTHWEST WISCONSIN

CITY           SKY/WX    TMP DP  RH WIND       PRES   REMARKS
SUPERIOR ARPT  PTSUNNY   78  72  80 SW5       29.90S HX  80
ASHLAND        CLOUDY    79  74  84 W5        29.91S HX  82
6HR MIN TEMP:  71; 6HR MAX TEMP:  79; 6HR PCP:  0.05;

HAYWARD        PTSUNNY   81  69  67 SW8       29.93F HX  84
6HR MIN TEMP:  70; 6HR MAX TEMP:  81;

SIREN          PTSUNNY   81  70  70 W7        29.92F HX  84
CUMBERLAND     PTSUNNY   79  66  65 SW9       29.94F HX  81
RICE LAKE      PTSUNNY   81  70  68 S3        29.94F HX  85
CHETEK         PTSUNNY  N/A N/A N/A MISG      29.93F
LADYSMITH      PTSUNNY   81  69  66 S8        29.96F HX  84
6HR MIN TEMP:  70; 6HR MAX TEMP:  82;

EAU CLAIRE     NOT AVBL
MENOMONIE      MOSUNNY   84  69  60 SE7       29.92F HX  88
6HR MIN TEMP:  67; 6HR MAX TEMP:  85;

NEW RICHMOND   MOSUNNY   83  68  61 S6        29.93S HX  86
OSCEOLA        PTSUNNY   81  69  65 S5        29.94F HX  84
$$

WIZ003>005-009-010-017-018-011900-
NORTH CENTRAL WISCONSIN

CITY           SKY/WX    TMP DP  RH WIND       PRES   REMARKS
MANITOWISH WTR PTSUNNY   79  67  67 SW8       29.96F HX  81
ARBOR VITAE    PTSUNNY   80  69  69 SW5       29.96S HX  82
WOODRUFF       PTSUNNY   80  69  69 SW5       29.96S HX  82
RHINELANDER    MOSUNNY   81  68  64 SW10      29.98F HX  84
6HR MIN TEMP:  70; 6HR MAX TEMP:  81;

EAGLE RIVER    PTSUNNY   80  65  59 SW10G17   29.96F HX  82
LAND O LAKES   MOSUNNY   81  65  58 SW10G17   29.97S HX  83
PHILLIPS       PTSUNNY   79  69  70 SW6       29.96S HX  81
6HR MIN TEMP:  69; 6HR MAX TEMP:  79;

TOMAHAWK       MOSUNNY   79  69  70 S5        29.97F HX  81
MEDFORD        MOSUNNY   79  69  72 SW7       29.98S HX  81
MERRILL        MOSUNNY   82  70  66 SW8       29.97F HX  85
$$

WIZ029-030-035-036-043>047-011900-
CENTRAL WISCONSIN

CITY           SKY/WX    TMP DP  RH WIND       PRES   REMARKS
WAUSAU         MOSUNNY   83  68  60 SW9       29.95F HX  86
6HR MIN TEMP:  65; 6HR MAX TEMP:  84;

MOSINEE        NOT AVBL
MARSHFIELD     MOSUNNY   85  67  54 SW9       29.96F HX  87
6HR MIN TEMP:  65; 6HR MAX TEMP:  86;

STEVENS POINT  MOSUNNY   83  66  55 SW9       29.97F HX  85
WAUPACA        MOSUNNY   89  69  50 S10       29.96F HX  93
WAUTOMA        NOT AVBL
WISC RAPIDS    MOSUNNY   86  67  52 SW8       29.97F HX  89
6HR MIN TEMP:  67; 6HR MAX TEMP:  86;

CAMP DOUGLAS   NOT AVBL
$$

WIZ011>013-019>022-031-037>040-048>050-011900-
NORTHEAST WISCONSIN

CITY           SKY/WX    TMP DP  RH WIND       PRES   REMARKS
ANTIGO         PTSUNNY   81  69  65 SW12      29.98F HX  84
SHAWANO        MOSUNNY   86  73  64 S3        29.95F HX  92
OCONTO         MOSUNNY   83  76  79 S3        29.94F HX  92
STURGEON BAY   SUNNY     82  72  69 S9        29.98F HX  87
6HR MIN TEMP:  66; 6HR MAX TEMP:  84;

GREEN BAY      MOSUNNY   85  74  69 S8        29.96F HX  92
6HR MIN TEMP:  67; 6HR MAX TEMP:  86;

MANITOWOC      NOT AVBL
APPLETON       PTSUNNY   84  70  61 S13       29.96F HX  88
CLINTONVILLE   PTSUNNY   86  68  54 SW9       29.94F HX  89
OSHKOSH        MOSUNNY   85  71  63 SW9       29.97F HX  90
6HR MIN TEMP:  69; 6HR MAX TEMP:  86;

$$

WIZ032>034-041-042-053>061-011900-
SOUTHWEST WISCONSIN

CITY           SKY/WX    TMP DP  RH WIND       PRES   REMARKS
LA CROSSE      MOSUNNY   87  73  62 S12       29.92F HX  94
6HR MIN TEMP:  69; 6HR MAX TEMP:  87;

SPARTA         SUNNY     87  69  54 S6        29.95F HX  90
VIROQUA          N/A     84  72  67 S7        29.98S HX  90
BOSCOBEL       SUNNY     89  73  59 VRB5      29.96F HX  97
PRAIRIE DU CHI SUNNY     85  71  62 SW7       29.96F HX  89
PLATTEVILLE    SUNNY     84  75  76 SW12G17   30.00F HX  92
$$

WIZ056-057-062-063-064-067-068-011900-
SOUTH CENTRAL WISCONSIN

CITY           SKY/WX    TMP DP  RH WIND       PRES   REMARKS
REEDSBURG      MOSUNNY   84  73  67 S8        29.97F HX  90
BARABOO/DELLS  MOSUNNY   87  67  51 S12       29.98F HX  90
LONE ROCK      NOT AVBL
MINERAL POINT  SUNNY     86  72  62 S10       30.01S HX  92
MADISON        MOSUNNY   87  70  56 S8        29.99S HX  92
6HR MIN TEMP:  70; 6HR MAX TEMP:  87;

MIDDLETON      SUNNY     89  67  49 S13       30.00S HX  92
WATERTOWN      MOSUNNY   86  71  59 S7        30.00F HX  91
MONROE         SUNNY     84  70  61 S13       30.01F HX  88
JANESVILLE     NOT AVBL
$$

WIZ051-052-058>065-066-070>072-011900-
SOUTHEAST WISCONSIN

CITY           SKY/WX    TMP DP  RH WIND       PRES   REMARKS
MILWAUKEE      MOSUNNY   89  68  49 S12G21    30.00F HX  93
6HR MIN TEMP:  70; 6HR MAX TEMP:  89;

WAUKESHA       SUNNY     84  66  54 SW5       30.03S HX  86
MILWAUKEE/TIMM MOSUNNY   88  64  45 SW8       30.01S HX  89
RACINE         SUNNY     85  72  65 S10       30.03S HX  91
6HR MIN TEMP:  70; 6HR MAX TEMP:  87;

BURLINGTON     SUNNY     85  70  60 S8        30.02S HX  90
KENOSHA        MOSUNNY   88  73  61 SW10G17   30.02F HX  95
6HR MIN TEMP:  70; 6HR MAX TEMP:  88;

FOND DU LAC    SUNNY     86  73  65 SW8       29.98F HX  93
6HR MIN TEMP:  69; 6HR MAX TEMP:  86;

SHEBOYGAN      MOSUNNY   85  70  60 SW13      29.98F HX  89
6HR MIN TEMP:  63; 6HR MAX TEMP:  86;

WEST BEND      SUNNY     86  64  48 SW10      30.00F HX  87
JUNEAU         SUNNY     84  69  60 S8        30.01F HX  87
$$

LSZ147-162-011900-
LAKE SUPERIOR

STATION/POSITION TIME  TEMP    WIND        PRES    WAVE
                       AIR SEA DIR/SP/G            HT/PER
                 (UTC) (F)     (DEG/KT/KT) (MB)    (FT/S)
W MID LAKE BUOY  1650   59 55  200/  4/  6 1012.2F   1
DEVILS ISLAND    1700   67     240/ 11/ 14 1012.2F
PORT WING        1700   70     260/  5/  6 1012.5F
SAXON HARBOR     1700   79      CALM  /  8 1012.2S
$$

LMZ867-665-643>646-011900-
LAKE MICHIGAN

STATION/POSITION TIME  TEMP    WIND        PRES    WAVE
                       AIR SEA DIR/SP/G            HT/PER
                 (UTC) (F)     (DEG/KT/KT) (MB)    (FT/S)
CHAMBERS ISLAND  1700   78     180/  5/  9 1014.6F
S GREEN BAY BUOY 1700   72 66  210/  8/  8 1016.0
N MID LAKE BUOY  1650   67 65  200/ 10/ 12 1015.1F   1/ 4
NORTHPORT PIER   1700   70     150/  8/ 10 1014.9F
SISTER BAY       1719   82     150/ 10/ 12   N/A
ALGOMA LAKESHORE 1659          210/  6/  9   N/A
KEWAUNEE LAKESHO 1700   54     160/  9/ 11 1014.4F
SHEBOYGAN LAKESH 1700   67     180/ 20/ 21 1015.5F
PORT WASHINGTON  1740   65     160/  5/  8 1016.3F
ATWATER BUOY     1700   60 53  160/  8/ 10 1017.4F
MILWAUKEE LAKESH 1710   65      30/  1/  3   N/A
S MID LAKE BUOY  1650   71 70  180/ 12/ 14 1016.8F   1/ 3
KENOSHA   LAKESH 1700   66     180/ 11/ 14 1016.3F
$$

TC  - TEMPERATURE IN CELSIUS
VSB - VISIBILITY IN STATUTE MILES
WCI - WIND CHILL INDEX
HX  - HEAT INDEX



USA.gov is the U.S. government's official web portal to all federal, state and local government web resources and services.